When you browse on this site, cookies collect data to enhance your experience and personalize the content and advertising you see.
Visit our Privacy Policy to learn more. By continuing to use the site, you agree to this use of cookies and data.
  • în România
  • Lista ţărilor
  • Pe 7 zile
  • Temperatura apei
  • Meteo pe hartă
  • Widget-uri
  • user-avatar
    Intrare

    Meteo pe oră la Mochudi

    Astăzi, 15 Noiembrie, Vineri

    Timp Temperatura Precipitaţii Vânt Presiune Umiditate
    00:00 +25°C° 0 mm 3 m/s 676 mmHg 20%
    01:00 +24°C° 0 mm 3 m/s 676 mmHg 21%
    02:00 +22°C° 0 mm 3 m/s 676 mmHg 22%
    03:00 +23°C° 0 mm 2 m/s 676 mmHg 24%
    04:00 +21°C° 0 mm 2 m/s 676 mmHg 25%
    05:00 +20°C° 0 mm 2 m/s 675 mmHg 27%
    06:00 +23°C° 0 mm 2 m/s 676 mmHg 26%
    07:00 +25°C° 0 mm 2 m/s 677 mmHg 24%
    08:00 +27°C° 0 mm 2 m/s 678 mmHg 22%
    09:00 +29°C° 0 mm 2 m/s 678 mmHg 19%
    10:00 +31°C° 0 mm 1 m/s 678 mmHg 16%
    11:00 +34°C° 0 mm 1 m/s 678 mmHg 13%
    12:00 +35°C° 0 mm 2 m/s 678 mmHg 12%
    13:00 +36°C° 0 mm 2 m/s 677 mmHg 11%
    14:00 +36°C° 0 mm 3 m/s 677 mmHg 9%
    15:00 +36°C° 0 mm 3 m/s 676 mmHg 9%
    16:00 +36°C° 0 mm 3 m/s 676 mmHg 9%
    17:00 +36°C° 0 mm 3 m/s 675 mmHg 9%
    18:00 +34°C° 0 mm 2 m/s 675 mmHg 11%
    19:00 +31°C° 0 mm 2 m/s 675 mmHg 14%
    20:00 +30°C° 0 mm 1 m/s 675 mmHg 16%
    21:00 +29°C° 0 mm 1 m/s 675 mmHg 17%
    22:00 +28°C° 0 mm 1 m/s 675 mmHg 18%
    23:00 +27°C° 0 mm 1 m/s 675 mmHg 19%

    Mâine, 16 Noiembrie, Sâmbătă

    Timp Temperatura Precipitaţii Vânt Presiune Umiditate
    00:00 +27°C° 0 mm 1 m/s 675 mmHg 20%
    01:00 +26°C° 0 mm 1 m/s 675 mmHg 22%
    02:00 +23°C° 0 mm 0 m/s 674 mmHg 23%
    03:00 +25°C° 0 mm 1 m/s 674 mmHg 24%
    04:00 +24°C° 0 mm 2 m/s 674 mmHg 25%
    05:00 +24°C° 0 mm 2 m/s 675 mmHg 26%
    06:00 +25°C° 0 mm 3 m/s 675 mmHg 34%
    07:00 +26°C° 0 mm 5 m/s 676 mmHg 43%
    08:00 +27°C° 0 mm 6 m/s 677 mmHg 51%
    09:00 +29°C° 0 mm 5 m/s 677 mmHg 45%
    10:00 +32°C° 0 mm 4 m/s 677 mmHg 38%
    11:00 +33°C° 0 mm 4 m/s 677 mmHg 32%
    12:00 +35°C° 0 mm 2 m/s 677 mmHg 27%
    13:00 +36°C° 0 mm 1 m/s 676 mmHg 22%
    14:00 +35°C° 0 mm 0 m/s 676 mmHg 17%
    15:00 +35°C° 0 mm 0 m/s 676 mmHg 16%
    16:00 +36°C° 0 mm 1 m/s 675 mmHg 15%
    17:00 +36°C° 0 mm 1 m/s 675 mmHg 14%
    18:00 +34°C° 0 mm 1 m/s 674 mmHg 17%
    19:00 +34°C° 0 mm 2 m/s 674 mmHg 20%
    20:00 +31°C° 0 mm 2 m/s 674 mmHg 23%
    21:00 +30°C° 0 mm 3 m/s 674 mmHg 25%
    22:00 +29°C° 0 mm 3 m/s 674 mmHg 27%
    23:00 +29°C° 0 mm 3 m/s 674 mmHg 29%

    Poimâine, 17 Noiembrie, Duminică

    Timp Temperatura Precipitaţii Vânt Presiune Umiditate
    00:00 +28°C° 0 mm 3 m/s 674 mmHg 30%
    01:00 +28°C° 0 mm 3 m/s 674 mmHg 32%
    02:00 +27°C° 0 mm 4 m/s 674 mmHg 34%
    03:00 +27°C° 0 mm 4 m/s 674 mmHg 36%
    04:00 +26°C° 0 mm 3 m/s 674 mmHg 39%
    05:00 +25°C° 0 mm 3 m/s 674 mmHg 42%
    06:00 +26°C° 0 mm 4 m/s 675 mmHg 40%
    07:00 +28°C° 0 mm 5 m/s 675 mmHg 39%
    08:00 +29°C° 0 mm 6 m/s 676 mmHg 38%
    09:00 +32°C° 0 mm 6 m/s 676 mmHg 34%
    10:00 +34°C° 0 mm 5 m/s 676 mmHg 29%
    11:00 +36°C° 0 mm 5 m/s 677 mmHg 25%
    12:00 +37°C° 0 mm 5 m/s 676 mmHg 21%
    13:00 +40°C° 0 mm 4 m/s 676 mmHg 17%
    14:00 +41°C° 0 mm 4 m/s 675 mmHg 14%
    15:00 +41°C° 0 mm 4 m/s 675 mmHg 13%
    16:00 +41°C° 0 mm 4 m/s 674 mmHg 13%
    17:00 +40°C° 0 mm 3 m/s 674 mmHg 12%
    18:00 +38°C° 0 mm 3 m/s 674 mmHg 14%
    19:00 +36°C° 0 mm 2 m/s 673 mmHg 16%
    20:00 +34°C° 0 mm 2 m/s 673 mmHg 18%
    21:00 +32°C° 0 mm 2 m/s 673 mmHg 19%
    22:00 +31°C° 0 mm 2 m/s 674 mmHg 21%
    23:00 +30°C° 0 mm 2 m/s 674 mmHg 22%

    18 Noiembrie, Luni

    Timp Temperatura Precipitaţii Vânt Presiune Umiditate
    00:00 +30°C° 0 mm 2 m/s 674 mmHg 23%
    01:00 +29°C° 0 mm 2 m/s 674 mmHg 24%
    02:00 +28°C° 0 mm 1 m/s 674 mmHg 25%
    03:00 +28°C° 0 mm 2 m/s 674 mmHg 26%
    04:00 +27°C° 0 mm 2 m/s 674 mmHg 26%
    05:00 +26°C° 0 mm 2 m/s 674 mmHg 26%
    06:00 +28°C° 0 mm 2 m/s 675 mmHg 25%
    07:00 +30°C° 0 mm 3 m/s 675 mmHg 24%
    08:00 +31°C° 0 mm 3 m/s 676 mmHg 23%
    09:00 +35°C° 0 mm 3 m/s 676 mmHg 20%
    10:00 +37°C° 0 mm 3 m/s 677 mmHg 17%
    11:00 +40°C° 0 mm 4 m/s 677 mmHg 14%
    12:00 +41°C° 0 mm 4 m/s 676 mmHg 14%
    13:00 +41°C° 0 mm 4 m/s 676 mmHg 13%
    14:00 +42°C° 0 mm 4 m/s 675 mmHg 13%
    15:00 +40°C° 0 mm 3 m/s 675 mmHg 13%
    16:00 +40°C° 0 mm 3 m/s 675 mmHg 13%
    17:00 +40°C° 0 mm 3 m/s 675 mmHg 13%
    18:00 +39°C° 0 mm 3 m/s 675 mmHg 17%
    19:00 +37°C° 0 mm 3 m/s 675 mmHg 20%
    20:00 +35°C° 0 mm 4 m/s 675 mmHg 24%
    21:00 +34°C° 0 mm 4 m/s 675 mmHg 25%
    22:00 +34°C° 0 mm 4 m/s 676 mmHg 27%
    23:00 +34°C° 0 mm 5 m/s 676 mmHg 28%

    19 Noiembrie, Marţi

    Timp Temperatura Precipitaţii Vânt Presiune Umiditate
    00:00 +33°C° 0 mm 5 m/s 676 mmHg 34%
    01:00 +32°C° 0 mm 5 m/s 676 mmHg 39%
    02:00 +30°C° 0 mm 5 m/s 676 mmHg 45%
    03:00 +30°C° 0 mm 5 m/s 676 mmHg 46%
    04:00 +29°C° 0 mm 5 m/s 676 mmHg 47%
    05:00 +29°C° 0 mm 6 m/s 677 mmHg 47%
    06:00 +29°C° 0 mm 6 m/s 677 mmHg 46%
    07:00 +30°C° 0 mm 6 m/s 677 mmHg 45%
    08:00 +30°C° 0 mm 7 m/s 677 mmHg 44%
    09:00 +33°C° 0 mm 6 m/s 678 mmHg 38%
    10:00 +35°C° 0 mm 6 m/s 678 mmHg 32%
    11:00 +37°C° 0 mm 5 m/s 678 mmHg 27%
    12:00 +39°C° 0 mm 5 m/s 678 mmHg 25%
    13:00 +40°C° 0 mm 5 m/s 677 mmHg 23%
    14:00 +40°C° 0 mm 5 m/s 676 mmHg 21%
    15:00 +38°C° 0.1 mm 4 m/s 676 mmHg 23%
    16:00 +37°C° 0.1 mm 3 m/s 676 mmHg 25%
    17:00 +37°C° 0.1 mm 2 m/s 675 mmHg 27%
    18:00 +34°C° 0.1 mm 3 m/s 675 mmHg 34%
    19:00 +30°C° 0.1 mm 3 m/s 675 mmHg 41%
    20:00 +28°C° 0.1 mm 3 m/s 675 mmHg 49%
    21:00 +27°C° 0.9 mm 2 m/s 676 mmHg 54%
    22:00 +26°C° 0.9 mm 2 m/s 676 mmHg 59%
    23:00 +25°C° 0.9 mm 2 m/s 677 mmHg 65%

    20 Noiembrie, Miercuri

    Timp Temperatura Precipitaţii Vânt Presiune Umiditate
    00:00 +25°C° 1.3 mm 2 m/s 676 mmHg 69%
    01:00 +24°C° 1.3 mm 2 m/s 676 mmHg 73%
    02:00 +24°C° 1.3 mm 3 m/s 676 mmHg 77%
    03:00 +22°C° 1.7 mm 3 m/s 676 mmHg 78%
    04:00 +22°C° 1.7 mm 3 m/s 676 mmHg 79%
    05:00 +22°C° 1.7 mm 3 m/s 676 mmHg 80%
    06:00 +22°C° 1.1 mm 3 m/s 676 mmHg 80%
    07:00 +24°C° 1.1 mm 3 m/s 677 mmHg 80%
    08:00 +24°C° 1.1 mm 3 m/s 677 mmHg 80%
    09:00 +25°C° 0.1 mm 3 m/s 677 mmHg 74%
    10:00 +27°C° 0.1 mm 3 m/s 677 mmHg 69%
    11:00 +28°C° 0.1 mm 4 m/s 678 mmHg 63%
    12:00 +29°C° 0.7 mm 3 m/s 677 mmHg 59%
    13:00 +30°C° 0.7 mm 3 m/s 677 mmHg 55%
    14:00 +31°C° 0.7 mm 2 m/s 676 mmHg 51%
    15:00 +30°C° 1.8 mm 3 m/s 675 mmHg 57%
    16:00 +29°C° 1.8 mm 4 m/s 675 mmHg 63%
    17:00 +28°C° 1.8 mm 4 m/s 674 mmHg 69%
    18:00 +27°C° 1.8 mm 4 m/s 674 mmHg 73%
    19:00 +26°C° 1.8 mm 4 m/s 675 mmHg 77%
    20:00 +25°C° 1.8 mm 4 m/s 675 mmHg 81%
    21:00 +25°C° 1.5 mm 4 m/s 675 mmHg 82%
    22:00 +23°C° 1.5 mm 4 m/s 676 mmHg 84%
    23:00 +24°C° 1.5 mm 3 m/s 676 mmHg 85%
    Arată mai mult